DELTA 1 DEB, 40765

Orbit data source: Space-Track

DELTA 1 DEB, 40765 is space debris in SSO originally from a launch on Thu, 29 Jul 1976 UTC launched from the Air Force Western Test Range (AFWTR). Debris objects in space refer to the collection of defunct objects orbiting the Earth. Examples of debris include non-operational satellites, rocket bodies, and fragments generated from explosions, collisions, or faulty payload assembly.

Loading next visibility...
Identifier
40765, 1976-077GJ
Orbit
SSO
Country
Flag of USUS
Related business
Manufacturer
Unknown
Mission
Spacecraft
Bus & Motor
Unknown
Mass
Unknown
Launch date (UTC)
1976-07-29 (50 years ago)
Launch vehicle
Unknown
Launch site
Air Force Western Test Range (AFWTR)
Object type
Payload
Rocket body
Debris
Shape & HBR
Unknown shape, 0.1 m
Radar Cross Section
Small (<0.1 m²)

Expand to show TLE details & history
Last TLE update: 22 hours ago

TLE from 22 hours ago
0 DELTA 1 DEB
1 40765U 76077GJ  26037.46513508  .00000029  00000-0  52431-3 0  9998
2 40765 102.1628  37.7350 0027631 303.9884  55.8558 12.45435556555015
Epoch: 2026-02-06T11:09Z
TLE epoch observation values (Epoch: 2026-02-06T11:09:47.670Z)
Latitude
0.00001°
Longitude
93.68375°
Altitude
1,474.042 km
Speed
7.132 km/s
True Right ascension
02h 30m 56s
True Declination
0° 00' 00"
Sunlit
Object was in daylight at epoch
Visualization orbit readout
Latitude
Unknown
Longitude
Unknown
Altitude
Unknown
Speed
Unknown
Apparent Right ascension
Unknown
Apparent Declination
Unknown
Sunlit
N/A
Visualization observer readout
Local Sidereal Time
11:29:49
Azimuth
Unknown
Elevation
Unknown
Doppler factor
Unknown
Orbital elements
Apogee altitude
1,502.939 km
Perigee altitude
1,459.506 km
Semi-major axis
7,859.359 km
Eccentricity
0.00276
Inclination
102.1628°
RAAN
37.735°
Arg. of periapsis
303.9884°
True anomaly
56.11836°
Mean anomaly
55.8558°
Eccentric anomaly
55.98703°
Mean motion
3.11503 °/min
Orbital period
115.57 mins
BSTAR
0.00052431
Loading maneuver chart data...
Computing Atmospheric mass density...
Loading historical data...
Loading historical data...
Loading historical data...
Loading historical data...
Loading historical data...
Loading historical data...
Loading historical data...

Documentation

Showing up to 5 results
|